This demonstration page uses our WeatherBlox Daily Observations layout. Learn more.

Left ArrowRight Arrow

38.80484, -77.04692

Hourly Observations for August 15, 2021

Temp ( °F °C ) Dew Point ( °F °C ) Humidity (%) Winds ( mph kmh ) Pressure ( in mb ) Visibility ( mi km ) Precip ( " mm )
12:09 am 00:09 Cloudy with Strong Thunderstorms 75 23.9 72 22.2 90 90 SSW 16 26 30.15 1021 1 2 0.51 12.95
12:17 am 00:17 Cloudy with Strong Thunderstorms 75 23.9 73 22.8 94 94 S 24 39 30.15 1021 1 1 0.91 23.11
12:27 am 00:27 Cloudy with Strong Thunderstorms 75 23.9 73 22.8 94 94 S 18 30 30.14 1021 1 2 1.63 41.40
12:40 am 00:40 Cloudy with Thunderstorms 74 23.3 72 22.2 94 94 S 12 19 30.16 1021 3 4 2.09 53.09
12:46 am 00:46 Cloudy with Strong Thunderstorms 73 23 73 23 100 100 S 9 15 30.17 1022 3 5 2.21 56.13
12:52 am 00:52 Cloudy with Strong Thunderstorms 74 23.3 73 22.8 97 97 SSW 8 13 30.16 1022 3 5 2.26 57.40
12:56 am 00:56 Cloudy with Thunderstorms 74 23.3 73 22.8 97 97 SSW 8 13 30.16 1021 4 6 0.02 0.51
1:52 am 01:52 Cloudy with Thunderstorms 75 23.9 72 22.2 90 90 NNE 6 9 30.13 1020 5 8 0.12 3.05
1:58 am 01:58 Cloudy with Nearby Thunderstorms 75 23.9 72 22.2 90 90 N 9 15 30.13 1020 10 16 0.00 0.00
2:08 am 02:08 Cloudy with Rain 75 23.9 72 22.2 90 90 NNE 12 19 30.12 1020 10 16 0.02 0.51
2:42 am 02:42 Mostly Cloudy with Light Rain 75 23.9 71 21.7 88 88 NNE 9 15 30.12 1020 10 16 0.07 1.78
2:52 am 02:52 Mostly Cloudy with Light Rain 75 23.9 71 21.7 88 88 N 8 13 30.12 1020 10 16 0.08 2.03
3:52 am 03:52 Cloudy with Light Rain 75 23.9 71 21.7 88 88 N 10 17 30.13 1020 10 16 0.05 1.27
4:52 am 04:52 Cloudy with Light Rain 74 23.3 66 18.9 76 76 NNE 8 13 30.14 1021 10 16 0.02 0.51
5:52 am 05:52 Cloudy with Light Rain 73 22.8 66 18.9 79 79 N 7 11 30.15 1021 10 16 0.00 0.00
6:52 am 06:52 Cloudy 73 22.8 64 17.8 74 74 NNE 9 15 30.18 1022 10 16 0.00 0.00
7:52 am 07:52 Mostly Cloudy 73 22.8 63 17.2 71 71 NNE 9 15 30.19 1023 10 16 N/A
8:52 am 08:52 Mostly Cloudy 73 22.8 62 16.7 69 69 NNE 12 19 30.21 1023 10 16 N/A
9:52 am 09:52 Mostly Cloudy 75 23.9 63 17.2 66 66 NE 9 15 30.22 1023 10 16 N/A
10:52 am 10:52 Mostly Cloudy 77 25 63 17.2 62 62 ENE 10 17 30.22 1023 10 16 N/A
11:52 am 11:52 Mostly Cloudy 79 26.1 62 16.7 56 56 ENE 10 17 30.21 1023 10 16 N/A
12:52 pm 12:52 Cloudy 80 26.7 62 16.7 54 54 NE 8 13 30.21 1023 10 16 N/A
1:52 pm 13:52 Mostly Cloudy 82 27.8 62 16.7 51 51 ENE 7 11 30.19 1022 10 16 N/A
2:52 pm 14:52 Mostly Cloudy 83 28.3 61 16.1 48 48 N N/A 30.17 1022 10 16 N/A
3:52 pm 15:52 Cloudy 82 27.8 62 16.7 51 51 E 6 9 30.16 1021 10 16 N/A
4:52 pm 16:52 Cloudy 83 28.3 63 17.2 51 51 E 6 9 30.15 1021 10 16 N/A
5:52 pm 17:52 Mostly Cloudy 82 27.8 63 17.2 53 53 E 9 15 30.14 1021 10 16 N/A
6:52 pm 18:52 Mostly Cloudy 81 27.2 62 16.7 53 53 E 7 11 30.13 1020 10 16 N/A
7:52 pm 19:52 Mostly Cloudy 80 26.7 61 16.1 52 52 E 6 9 30.15 1021 10 16 N/A
8:52 pm 20:52 Mostly Cloudy 78 25.6 65 18.3 64 64 SE 6 9 30.16 1021 10 16 N/A
9:52 pm 21:52 Mostly Cloudy 78 25.6 65 18.3 64 64 SE 3 6 30.17 1022 10 16 N/A
10:52 pm 22:52 Cloudy 78 25.6 65 18.3 64 64 E 3 6 30.16 1021 10 16 N/A
11:52 pm 23:52 Cloudy 79 26.1 65 18.3 62 62 E 3 6 30.16 1021 10 16 N/A

Powered by AerisWeather